STARLINK-1149 (45079 NORAD) Tracking and Keplerian Element Data

This shows tracking and keplerian element data for the satellite.

Feedback or suggestion? Click here.




ElementValue
Catalog45079
NameSTARLINK-1149
Epoch Orbit1014
Epoch Day93.91667824
Epoch Year2020
RAAN275.8697
Inclination52.9995
Eccentricity0.0002776
Argument of Perigee111.7649
Mean Anonmoly351.8406
Mean Motion15.37379824
Decay Rate0.02240645
L11 45079U 20006AM 20093.91667824 .02240645 00000-0 53858-1 0 9993
L22 45079 52.9995 275.8697 0002776 111.7649 351.8406 15.37379824 10143

Live tracking and technical data element details for STARLINK-1149 (NORAD 45079). STARLINK-1149 can be tracked NOW for your location showing map with azimuth and elevation plus other details from your city location.

Track the satellite on the map from your city or location and see movement details for azimuth, elevation, latitude, longitude, range, height, and movement on the map or in text.







IsCatalogInMostPopularTable: catalog: 45079, numindb: 11
Update: records affected: 1



GetName: 45079 STARLINK-1149

Hit Count: updated at: Fri, 03 Apr 2020 22:16:02 GMT